Volver al catálogo

STARLINK-37957

ActivoComunicacionesSSO
NORAD 69685·PAYLOAD·🇺🇸 United States

Lanzado Jun 25, 2026 desde Vandenberg Space Force Base

Loading…

Próximos Pases (próximas 24 horas)

TLE

ActualizadoSource: CelesTrak SupGP

Época: Sep 15, 2026, 04:17 UTC

1 69685C 26145J   26258.17895833 -.00058015  00000+0 -18009-2 0  2587
2 69685  97.2847 104.9045 0001834  94.0699  19.5457 15.33468632    12

Sigue STARLINK-37957 en tiempo real con AllMySat

Download on the App Store